Time,TemperatureF,DewpointF,PressureIn,WindDirection,WindDirectionDegrees,WindSpeedMPH,WindSpeedGustMPH,Humidity,HourlyPrecipIn,Conditions,Clouds,dailyrainin,SoftwareType,DateUTC
2013-10-11 00:01:00,55.0,44.7,29.29,WNW,292,0.0,0.0,68,0.00,,---,0.00,VWS V14.01,2013-10-11 04:01:00,
2013-10-11 00:02:00,54.9,44.5,29.29,WNW,292,0.0,0.0,68,0.00,,---,0.00,VWS V14.01,2013-10-11 04:02:00,
2013-10-11 00:03:00,54.9,44.5,29.29,WNW,292,0.0,0.0,68,0.00,,---,0.00,VWS V14.01,2013-10-11 04:03:00,
2013-10-11 00:07:00,54.9,44.5,29.29,ESE,111,0.0,0.0,68,0.00,,---,0.00,VWS V14.01,2013-10-11 04:07:00,
2013-10-11 00:08:00,54.9,44.5,29.29,ESE,111,0.0,0.0,68,0.00,,---,0.00,VWS V14.01,2013-10-11 04:08:00,
2013-10-11 00:13:00,54.9,44.5,29.29,ESE,111,0.0,0.0,68,0.00,,---,0.00,VWS V14.01,2013-10-11 04:13:00,
2013-10-11 00:18:00,54.9,44.5,29.29,East,82,0.0,5.4,68,0.00,,---,0.00,VWS V14.01,2013-10-11 04:18:00,
2013-10-11 00:19:00,54.9,44.5,29.29,East,82,0.0,0.0,68,0.00,,---,0.00,VWS V14.01,2013-10-11 04:19:00,
2013-10-11 00:24:00,54.9,44.5,29.29,SSE,155,2.7,4.5,68,0.00,,---,0.00,VWS V14.01,2013-10-11 04:24:00,
2013-10-11 00:29:00,54.9,44.5,29.29,SE,128,0.0,0.0,68,0.00,,---,0.00,VWS V14.01,2013-10-11 04:29:00,
2013-10-11 00:34:00,54.9,44.5,29.29,South,174,2.7,5.4,68,0.00,,---,0.00,VWS V14.01,2013-10-11 04:34:00,
2013-10-11 00:39:00,54.9,44.5,29.29,ESE,107,0.0,2.7,68,0.00,,---,0.00,VWS V14.01,2013-10-11 04:39:00,
2013-10-11 00:44:00,54.9,44.5,29.29,NE,46,0.0,0.0,68,0.00,,---,0.00,VWS V14.01,2013-10-11 04:44:00,
2013-10-11 00:49:00,54.9,44.5,29.29,South,182,0.0,0.0,68,0.00,,---,0.00,VWS V14.01,2013-10-11 04:49:00,
2013-10-11 00:55:00,54.9,44.5,29.29,WSW,239,0.0,0.0,68,0.00,,---,0.00,VWS V14.01,2013-10-11 04:55:00,
2013-10-11 01:00:00,54.9,44.5,29.29,SE,132,0.0,0.0,68,0.00,,---,0.00,VWS V14.01,2013-10-11 05:00:00,
2013-10-11 01:05:00,54.9,44.9,29.29,SE,132,0.0,0.0,69,0.00,,---,0.00,VWS V14.01,2013-10-11 05:05:00,
2013-10-11 01:10:00,54.9,44.9,29.29,North,351,0.0,0.0,69,0.00,,---,0.00,VWS V14.01,2013-10-11 05:10:00,
2013-10-11 01:15:00,54.9,44.9,29.29,SSW,200,0.0,0.0,69,0.00,,---,0.00,VWS V14.01,2013-10-11 05:15:00,
2013-10-11 01:20:00,55.0,45.5,29.29,SSW,200,0.0,0.0,70,0.00,,---,0.00,VWS V14.01,2013-10-11 05:20:00,
2013-10-11 01:25:00,55.0,45.5,29.29,ESE,110,0.0,0.0,70,0.00,,---,0.00,VWS V14.01,2013-10-11 05:25:00,
2013-10-11 01:30:00,55.2,45.6,29.29,ENE,63,0.0,0.0,70,0.00,,---,0.00,VWS V14.01,2013-10-11 05:30:00,
2013-10-11 01:35:00,55.2,45.2,29.29,SSE,160,0.0,5.4,69,0.00,,---,0.00,VWS V14.01,2013-10-11 05:35:00,
2013-10-11 01:40:00,55.2,45.2,29.29,SSE,160,0.0,0.0,69,0.00,,---,0.00,VWS V14.01,2013-10-11 05:40:00,
2013-10-11 01:45:00,55.4,45.4,29.29,NNW,329,0.0,0.0,69,0.00,,---,0.00,VWS V14.01,2013-10-11 05:45:00,
2013-10-11 01:50:00,55.4,45.4,29.29,SSE,162,0.0,4.5,69,0.00,,---,0.00,VWS V14.01,2013-10-11 05:50:00,
2013-10-11 01:55:00,55.4,45.4,29.29,ESE,110,0.0,0.0,69,0.00,,---,0.00,VWS V14.01,2013-10-11 05:55:00,
2013-10-11 02:00:00,55.6,45.6,29.26,West,276,0.0,0.0,69,0.00,,---,0.00,VWS V14.01,2013-10-11 06:00:00,
2013-10-11 02:05:00,55.6,45.6,29.26,NNE,26,0.0,3.1,69,0.00,,---,0.00,VWS V14.01,2013-10-11 06:05:00,
2013-10-11 02:10:00,55.6,45.6,29.26,SSW,204,0.0,5.4,69,0.00,,---,0.00,VWS V14.01,2013-10-11 06:10:00,
2013-10-11 02:15:00,55.6,45.6,29.26,ESE,118,0.0,0.0,69,0.00,,---,0.00,VWS V14.01,2013-10-11 06:15:00,
2013-10-11 02:20:00,55.6,45.6,29.26,ESE,118,0.0,0.0,69,0.00,,---,0.00,VWS V14.01,2013-10-11 06:20:00,
2013-10-11 02:25:00,55.6,45.6,29.26,ESE,118,0.0,0.0,69,0.00,,---,0.00,VWS V14.01,2013-10-11 06:25:00,
2013-10-11 02:30:00,55.4,45.4,29.26,ESE,118,0.0,0.0,69,0.00,,---,0.00,VWS V14.01,2013-10-11 06:30:00,
2013-10-11 02:35:00,55.4,45.4,29.26,NE,53,0.0,0.0,69,0.00,,---,0.00,VWS V14.01,2013-10-11 06:35:00,
2013-10-11 02:40:00,55.4,45.8,29.26,NE,53,0.0,0.0,70,0.00,,---,0.00,VWS V14.01,2013-10-11 06:40:00,
2013-10-11 02:45:00,55.2,46.0,29.26,NE,53,0.0,0.0,71,0.00,,---,0.00,VWS V14.01,2013-10-11 06:45:00,
2013-10-11 02:50:00,55.2,46.0,29.26,NE,53,0.0,0.0,71,0.00,,---,0.00,VWS V14.01,2013-10-11 06:50:00,
2013-10-11 02:55:00,55.2,46.0,29.26,NE,53,0.0,0.0,71,0.00,,---,0.00,VWS V14.01,2013-10-11 06:55:00,
2013-10-11 03:00:00,55.0,45.8,29.26,ESE,106,0.0,0.0,71,0.00,,---,0.00,VWS V14.01,2013-10-11 07:00:00,
2013-10-11 03:05:00,55.0,45.8,29.26,SSE,159,0.0,0.0,71,0.00,,---,0.00,VWS V14.01,2013-10-11 07:05:00,
2013-10-11 03:10:00,55.0,45.8,29.26,SSE,159,0.0,0.0,71,0.00,,---,0.00,VWS V14.01,2013-10-11 07:10:00,
2013-10-11 03:15:00,54.9,45.7,29.26,North,351,0.0,0.0,71,0.00,,---,0.00,VWS V14.01,2013-10-11 07:15:00,
2013-10-11 03:20:00,54.9,46.0,29.26,North,351,0.0,0.0,72,0.00,,---,0.00,VWS V14.01,2013-10-11 07:20:00,
2013-10-11 03:25:00,54.7,45.8,29.26,NNW,331,0.0,0.0,72,0.00,,---,0.00,VWS V14.01,2013-10-11 07:25:00,
2013-10-11 03:30:00,54.7,46.2,29.26,NNW,331,0.0,0.0,73,0.00,,---,0.00,VWS V14.01,2013-10-11 07:30:00,
2013-10-11 03:35:00,54.7,46.2,29.26,NW,310,0.0,0.0,73,0.00,,---,0.00,VWS V14.01,2013-10-11 07:35:00,
2013-10-11 03:40:00,54.7,46.2,29.26,NNW,335,0.0,0.0,73,0.00,,---,0.00,VWS V14.01,2013-10-11 07:40:00,
2013-10-11 03:45:00,54.9,46.4,29.26,East,83,0.0,0.0,73,0.00,,---,0.00,VWS V14.01,2013-10-11 07:45:00,
2013-10-11 03:50:00,54.9,46.4,29.26,NW,321,0.0,0.0,73,0.00,,---,0.00,VWS V14.01,2013-10-11 07:50:00,
2013-10-11 03:55:00,55.0,46.9,29.26,NW,321,0.0,0.0,74,0.00,,---,0.00,VWS V14.01,2013-10-11 07:55:00,
2013-10-11 04:00:00,55.0,46.9,29.26,SSE,156,0.0,0.0,74,0.00,,---,0.00,VWS V14.01,2013-10-11 08:00:00,
2013-10-11 04:05:00,55.2,47.1,29.26,NW,310,0.0,0.0,74,0.00,,---,0.00,VWS V14.01,2013-10-11 08:05:00,
2013-10-11 04:10:00,55.2,47.1,29.26,NW,310,0.0,0.0,74,0.00,,---,0.00,VWS V14.01,2013-10-11 08:10:00,
2013-10-11 04:15:00,55.4,46.9,29.26,South,191,0.0,0.0,73,0.00,,---,0.00,VWS V14.01,2013-10-11 08:15:00,
2013-10-11 04:20:00,55.2,46.7,29.26,South,181,0.0,0.0,73,0.00,,---,0.00,VWS V14.01,2013-10-11 08:20:00,
2013-10-11 04:25:00,55.2,46.7,29.26,South,180,0.0,0.0,73,0.00,,---,0.00,VWS V14.01,2013-10-11 08:25:00,
2013-10-11 04:30:00,55.4,46.9,29.26,NE,50,0.0,0.0,73,0.00,,---,0.00,VWS V14.01,2013-10-11 08:30:00,
2013-10-11 04:35:00,55.4,46.9,29.26,SSE,161,0.0,0.0,73,0.00,,---,0.00,VWS V14.01,2013-10-11 08:35:00,
2013-10-11 04:40:00,55.4,46.9,29.26,ENE,67,0.0,0.0,73,0.00,,---,0.00,VWS V14.01,2013-10-11 08:40:00,
2013-10-11 04:45:00,55.4,46.5,29.26,NNW,330,0.0,3.1,72,0.00,,---,0.00,VWS V14.01,2013-10-11 08:45:00,
2013-10-11 04:50:00,55.4,46.5,29.26,NE,44,0.0,0.0,72,0.00,,---,0.00,VWS V14.01,2013-10-11 08:50:00,
2013-10-11 04:55:00,55.6,46.7,29.26,SSW,192,3.6,3.6,72,0.00,,---,0.00,VWS V14.01,2013-10-11 08:55:00,
2013-10-11 05:00:00,55.6,46.7,29.26,West,272,0.0,0.0,72,0.00,,---,0.00,VWS V14.01,2013-10-11 09:00:00,
2013-10-11 05:05:00,55.6,46.3,29.26,East,93,0.0,0.0,71,0.00,,---,0.00,VWS V14.01,2013-10-11 09:05:00,
2013-10-11 05:10:00,55.6,46.3,29.26,North,351,0.0,0.0,71,0.00,,---,0.00,VWS V14.01,2013-10-11 09:10:00,
2013-10-11 05:15:00,55.8,46.5,29.26,East,89,0.0,0.0,71,0.00,,---,0.00,VWS V14.01,2013-10-11 09:15:00,
2013-10-11 05:20:00,55.8,46.1,29.26,SE,133,0.0,4.0,70,0.00,,---,0.00,VWS V14.01,2013-10-11 09:20:00,
2013-10-11 05:25:00,55.8,46.1,29.26,North,6,0.0,0.0,70,0.00,,---,0.00,VWS V14.01,2013-10-11 09:25:00,
2013-10-11 05:30:00,55.9,46.3,29.26,North,0,0.0,0.0,70,0.00,,---,0.00,VWS V14.01,2013-10-11 09:30:00,
2013-10-11 05:35:00,55.9,46.3,29.26,South,185,2.7,3.6,70,0.00,,---,0.00,VWS V14.01,2013-10-11 09:35:00,
2013-10-11 05:40:00,55.9,46.3,29.26,North,1,0.0,4.9,70,0.00,,---,0.00,VWS V14.01,2013-10-11 09:40:00,
2013-10-11 05:45:00,55.9,46.7,29.26,SE,127,0.0,5.4,71,0.00,,---,0.00,VWS V14.01,2013-10-11 09:45:00,
2013-10-11 05:50:00,55.8,46.5,29.26,SE,146,0.0,0.0,71,0.00,,---,0.00,VWS V14.01,2013-10-11 09:50:00,
2013-10-11 05:55:00,55.8,46.5,29.26,NW,310,0.0,0.0,71,0.00,,---,0.00,VWS V14.01,2013-10-11 09:55:00,
2013-10-11 06:00:00,55.8,46.5,29.26,NW,323,0.0,4.5,71,0.00,,---,0.00,VWS V14.01,2013-10-11 10:00:00,
2013-10-11 06:05:00,55.8,46.5,29.26,SE,140,0.0,0.0,71,0.00,,---,0.00,VWS V14.01,2013-10-11 10:05:00,
2013-10-11 06:10:00,55.6,46.7,29.26,SE,135,0.0,6.9,72,0.00,,---,0.00,VWS V14.01,2013-10-11 10:10:00,
2013-10-11 06:15:00,55.6,46.7,29.26,North,2,0.0,4.5,72,0.00,,---,0.00,VWS V14.01,2013-10-11 10:15:00,
2013-10-11 06:20:00,55.4,46.5,29.26,North,2,0.0,0.0,72,0.00,,---,0.00,VWS V14.01,2013-10-11 10:20:00,
2013-10-11 06:25:00,55.4,46.9,29.26,SW,219,0.0,0.0,73,0.00,,---,0.00,VWS V14.01,2013-10-11 10:25:00,
2013-10-11 06:30:00,55.4,46.9,29.26,NW,321,0.0,0.0,73,0.00,,---,0.00,VWS V14.01,2013-10-11 10:30:00,
2013-10-11 06:35:00,55.2,46.7,29.26,SW,236,0.0,0.0,73,0.00,,---,0.00,VWS V14.01,2013-10-11 10:35:00,
2013-10-11 06:40:00,55.4,47.3,29.26,SSE,150,0.0,0.0,74,0.00,,---,0.00,VWS V14.01,2013-10-11 10:40:00,
2013-10-11 06:45:00,55.4,47.3,29.26,SE,144,4.5,4.5,74,0.00,,---,0.00,VWS V14.01,2013-10-11 10:45:00,
2013-10-11 06:50:00,55.4,47.3,29.26,NNW,330,0.0,2.7,74,0.00,,---,0.00,VWS V14.01,2013-10-11 10:50:00,
2013-10-11 06:55:00,55.6,47.8,29.26,SSE,166,0.0,0.0,75,0.00,,---,0.00,VWS V14.01,2013-10-11 10:55:00,
2013-10-11 07:00:00,55.6,47.8,29.26,WNW,287,0.0,0.0,75,0.00,,---,0.00,VWS V14.01,2013-10-11 11:00:00,
2013-10-11 07:06:00,55.8,48.0,29.26,ESE,121,0.0,0.0,75,0.00,,---,0.00,VWS V14.01,2013-10-11 11:06:00,
2013-10-11 07:12:00,55.6,47.8,29.26,ENE,70,0.0,5.8,75,0.00,,---,0.00,VWS V14.01,2013-10-11 11:12:00,
2013-10-11 07:17:00,55.6,47.8,29.26,SSW,212,2.7,4.0,75,0.00,,---,0.00,VWS V14.01,2013-10-11 11:17:00,
2013-10-11 07:22:00,55.6,47.8,29.26,SSW,204,0.0,0.0,75,0.00,,---,0.00,VWS V14.01,2013-10-11 11:22:00,
2013-10-11 07:27:00,55.6,47.8,29.26,NE,41,0.0,0.0,75,0.00,,---,0.00,VWS V14.01,2013-10-11 11:27:00,
2013-10-11 07:32:00,55.6,48.2,29.26,SE,135,0.0,6.9,76,0.00,,---,0.00,VWS V14.01,2013-10-11 11:32:00,
2013-10-11 07:37:00,55.6,48.2,29.26,East,91,0.0,0.0,76,0.00,,---,0.00,VWS V14.01,2013-10-11 11:37:00,
2013-10-11 07:42:00,55.6,48.2,29.26,ENE,75,0.0,0.0,76,0.00,,---,0.00,VWS V14.01,2013-10-11 11:42:00,
2013-10-11 07:47:00,55.8,48.3,29.26,North,351,0.0,0.0,76,0.00,,---,0.00,VWS V14.01,2013-10-11 11:47:00,
2013-10-11 07:52:00,55.8,48.7,29.26,SSE,166,0.0,4.9,77,0.00,,---,0.00,VWS V14.01,2013-10-11 11:52:00,
2013-10-11 07:57:00,55.9,48.5,29.26,SE,146,0.0,2.7,76,0.00,,---,0.00,VWS V14.01,2013-10-11 11:57:00,
2013-10-11 08:03:00,56.1,48.7,29.26,East,83,0.0,2.7,76,0.00,,---,0.00,VWS V14.01,2013-10-11 12:03:00,
2013-10-11 08:08:00,56.3,48.8,29.26,ENE,78,0.0,0.0,76,0.00,,---,0.00,VWS V14.01,2013-10-11 12:08:00,
2013-10-11 08:13:00,56.5,49.0,29.26,NNE,12,0.0,4.0,76,0.00,,---,0.00,VWS V14.01,2013-10-11 12:13:00,
2013-10-11 08:18:00,56.7,48.8,29.26,NW,308,0.0,0.0,75,0.00,,---,0.00,VWS V14.01,2013-10-11 12:18:00,
2013-10-11 08:23:00,56.8,48.7,29.26,WSW,257,0.0,0.0,74,0.00,,---,0.00,VWS V14.01,2013-10-11 12:23:00,
2013-10-11 08:28:00,57.4,49.2,29.26,NNE,28,0.0,3.1,74,0.00,,---,0.00,VWS V14.01,2013-10-11 12:28:00,
2013-10-11 08:33:00,57.9,49.3,29.26,ESE,114,2.7,4.0,73,0.00,,---,0.00,VWS V14.01,2013-10-11 12:33:00,
2013-10-11 08:39:00,58.3,48.2,29.26,ESE,105,0.0,3.1,69,0.00,,---,0.00,VWS V14.01,2013-10-11 12:39:00,
2013-10-11 08:44:00,58.8,47.9,29.26,SSE,153,3.6,4.0,67,0.00,,---,0.00,VWS V14.01,2013-10-11 12:44:00,
2013-10-11 08:49:00,58.8,45.4,29.26,ESE,115,0.0,3.1,61,0.00,,---,0.00,VWS V14.01,2013-10-11 12:49:00,
2013-10-11 08:54:00,59.2,45.8,29.26,ESE,111,3.6,3.6,61,0.00,,---,0.00,VWS V14.01,2013-10-11 12:54:00,
2013-10-11 08:59:00,59.2,45.3,29.26,WSW,237,2.7,5.8,60,0.00,,---,0.00,VWS V14.01,2013-10-11 12:59:00,
2013-10-11 09:04:00,58.8,44.5,29.26,East,83,4.0,4.0,59,0.00,,---,0.00,VWS V14.01,2013-10-11 13:04:00,
2013-10-11 09:09:00,59.2,45.8,29.26,SSW,195,0.0,0.0,61,0.00,,---,0.00,VWS V14.01,2013-10-11 13:09:00,
2013-10-11 09:14:00,59.7,46.7,29.26,ENE,60,0.0,4.0,62,0.00,,---,0.00,VWS V14.01,2013-10-11 13:14:00,
2013-10-11 09:19:00,59.9,46.4,29.26,ESE,112,0.0,4.0,61,0.00,,---,0.00,VWS V14.01,2013-10-11 13:19:00,
2013-10-11 09:24:00,59.9,45.5,29.26,SSW,200,0.0,4.5,59,0.00,,---,0.00,VWS V14.01,2013-10-11 13:24:00,
2013-10-11 09:29:00,59.9,45.5,29.26,ESE,109,0.0,0.0,59,0.00,,---,0.00,VWS V14.01,2013-10-11 13:29:00,
2013-10-11 09:34:00,60.1,45.7,29.26,ESE,116,3.6,3.6,59,0.00,,---,0.00,VWS V14.01,2013-10-11 13:34:00,
2013-10-11 09:39:00,59.9,45.5,29.26,ESE,109,0.0,0.0,59,0.00,,---,0.00,VWS V14.01,2013-10-11 13:39:00,
2013-10-11 09:44:00,60.1,46.2,29.26,West,263,0.0,3.1,60,0.00,,---,0.00,VWS V14.01,2013-10-11 13:44:00,
2013-10-11 09:49:00,60.1,46.2,29.26,NNE,23,0.0,4.5,60,0.00,,---,0.00,VWS V14.01,2013-10-11 13:49:00,
2013-10-11 09:55:00,60.4,46.9,29.26,SSW,195,0.0,0.0,61,0.00,,---,0.00,VWS V14.01,2013-10-11 13:55:00,
2013-10-11 10:00:00,60.4,46.1,29.26,SW,215,3.6,4.0,59,0.00,,---,0.00,VWS V14.01,2013-10-11 14:00:00,
2013-10-11 10:05:00,60.6,46.2,29.26,North,0,0.0,0.0,59,0.00,,---,0.00,VWS V14.01,2013-10-11 14:05:00,
2013-10-11 10:10:00,60.6,46.2,29.26,East,84,4.0,4.5,59,0.00,,---,0.00,VWS V14.01,2013-10-11 14:10:00,
2013-10-11 10:15:00,60.8,46.4,29.26,East,97,0.0,3.6,59,0.00,,---,0.00,VWS V14.01,2013-10-11 14:15:00,
2013-10-11 10:20:00,60.8,46.0,29.26,NNE,17,0.0,5.8,58,0.00,,---,0.00,VWS V14.01,2013-10-11 14:20:00,
2013-10-11 10:25:00,61.2,46.7,29.26,NE,48,0.0,0.0,59,0.00,,---,0.00,VWS V14.01,2013-10-11 14:25:00,
2013-10-11 10:30:00,61.5,47.5,29.26,SE,130,0.0,3.1,60,0.00,,---,0.00,VWS V14.01,2013-10-11 14:30:00,
2013-10-11 10:35:00,61.7,45.9,29.26,NNE,15,0.0,0.0,56,0.00,,---,0.00,VWS V14.01,2013-10-11 14:35:00,
2013-10-11 10:40:00,61.9,46.0,29.26,East,92,0.0,4.5,56,0.00,,---,0.00,VWS V14.01,2013-10-11 14:40:00,
2013-10-11 10:45:00,61.9,45.1,29.26,East,85,0.0,7.4,54,0.00,,---,0.00,VWS V14.01,2013-10-11 14:45:00,
2013-10-11 10:50:00,62.2,46.4,29.26,SSE,165,0.0,3.1,56,0.00,,---,0.00,VWS V14.01,2013-10-11 14:50:00,
2013-10-11 10:55:00,62.2,45.9,29.26,SSE,166,0.0,6.7,55,0.00,,---,0.00,VWS V14.01,2013-10-11 14:55:00,
2013-10-11 11:00:00,62.2,45.4,29.26,South,170,0.0,2.7,54,0.00,,---,0.00,VWS V14.01,2013-10-11 15:00:00,
2013-10-11 11:05:00,62.6,46.2,29.26,NE,43,0.0,0.0,55,0.00,,---,0.00,VWS V14.01,2013-10-11 15:05:00,
2013-10-11 11:10:00,62.8,45.9,29.26,East,95,3.1,5.4,54,0.00,,---,0.00,VWS V14.01,2013-10-11 15:10:00,
2013-10-11 11:15:00,63.0,46.1,29.26,SSE,159,0.0,0.0,54,0.00,,---,0.00,VWS V14.01,2013-10-11 15:15:00,
2013-10-11 11:21:00,63.0,46.1,29.26,North,0,0.0,6.7,54,0.00,,---,0.00,VWS V14.01,2013-10-11 15:21:00,
2013-10-11 11:26:00,63.1,45.2,29.26,SSW,203,0.0,0.0,52,0.00,,---,0.00,VWS V14.01,2013-10-11 15:26:00,
2013-10-11 11:31:00,63.1,45.8,29.26,SE,134,0.0,4.9,53,0.00,,---,0.00,VWS V14.01,2013-10-11 15:31:00,
2013-10-11 11:36:00,63.3,45.9,29.26,East,84,2.7,3.6,53,0.00,,---,0.00,VWS V14.01,2013-10-11 15:36:00,
2013-10-11 11:41:00,63.5,46.6,29.26,ENE,76,0.0,0.0,54,0.00,,---,0.00,VWS V14.01,2013-10-11 15:41:00,
2013-10-11 11:46:00,63.9,47.4,29.26,SW,234,0.0,0.0,55,0.00,,---,0.00,VWS V14.01,2013-10-11 15:46:00,
2013-10-11 11:51:00,64.0,47.6,29.26,ESE,112,0.0,3.1,55,0.00,,---,0.00,VWS V14.01,2013-10-11 15:51:00,
2013-10-11 11:56:00,64.0,47.1,29.26,SW,219,0.0,2.7,54,0.00,,---,0.00,VWS V14.01,2013-10-11 15:56:00,
2013-10-11 12:01:00,63.9,46.9,29.26,SE,143,0.0,0.0,54,0.00,,---,0.00,VWS V14.01,2013-10-11 16:01:00,
2013-10-11 12:06:00,63.9,46.9,29.26,ESE,110,0.0,3.6,54,0.00,,---,0.00,VWS V14.01,2013-10-11 16:06:00,
2013-10-11 12:11:00,63.7,47.7,29.26,East,94,6.3,7.4,56,0.00,,---,0.00,VWS V14.01,2013-10-11 16:11:00,
2013-10-11 12:16:00,63.7,47.7,29.26,ESE,115,0.0,0.0,56,0.00,,---,0.00,VWS V14.01,2013-10-11 16:16:00,
2013-10-11 12:21:00,63.9,48.3,29.26,SE,135,3.1,3.6,57,0.00,,---,0.00,VWS V14.01,2013-10-11 16:21:00,
2013-10-11 12:26:00,64.0,49.0,29.26,SSE,163,4.5,4.5,58,0.00,,---,0.00,VWS V14.01,2013-10-11 16:26:00,
2013-10-11 12:31:00,64.0,49.0,29.26,NNW,339,0.0,5.4,58,0.00,,---,0.00,VWS V14.01,2013-10-11 16:31:00,
2013-10-11 12:37:00,64.2,49.2,29.26,SE,128,0.0,4.9,58,0.00,,---,0.00,VWS V14.01,2013-10-11 16:37:00,
2013-10-11 12:42:00,64.4,49.8,29.26,East,93,6.3,6.3,59,0.00,,---,0.00,VWS V14.01,2013-10-11 16:42:00,
2013-10-11 12:47:00,64.6,49.0,29.26,SE,131,3.1,5.4,57,0.00,,---,0.00,VWS V14.01,2013-10-11 16:47:00,
2013-10-11 12:52:00,64.8,48.2,29.26,East,93,4.9,6.7,55,0.00,,---,0.00,VWS V14.01,2013-10-11 16:52:00,
2013-10-11 12:57:00,64.9,48.9,29.26,East,93,5.4,5.4,56,0.00,,---,0.00,VWS V14.01,2013-10-11 16:57:00,
2013-10-11 13:02:00,64.9,48.9,29.26,SSW,210,0.0,3.6,56,0.00,,---,0.00,VWS V14.01,2013-10-11 17:02:00,
2013-10-11 13:07:00,64.9,47.4,29.26,North,351,2.7,6.9,53,0.00,,---,0.00,VWS V14.01,2013-10-11 17:07:00,
2013-10-11 13:12:00,64.8,47.8,29.26,East,88,0.0,4.5,54,0.00,,---,0.00,VWS V14.01,2013-10-11 17:12:00,
2013-10-11 13:17:00,64.9,47.9,29.26,SSE,166,0.0,3.6,54,0.00,,---,0.00,VWS V14.01,2013-10-11 17:17:00,
2013-10-11 13:22:00,64.9,48.4,29.26,NNW,327,0.0,4.0,55,0.00,,---,0.00,VWS V14.01,2013-10-11 17:22:00,
2013-10-11 13:27:00,65.1,49.0,29.26,ENE,62,0.0,0.0,56,0.00,,---,0.00,VWS V14.01,2013-10-11 17:27:00,
2013-10-11 13:32:00,65.1,48.6,29.26,SE,145,0.0,0.0,55,0.00,,---,0.00,VWS V14.01,2013-10-11 17:32:00,
2013-10-11 13:37:00,65.1,47.6,29.26,ESE,109,0.0,4.9,53,0.00,,---,0.00,VWS V14.01,2013-10-11 17:37:00,
2013-10-11 13:42:00,65.3,48.2,29.26,NNE,19,0.0,0.0,54,0.00,,---,0.00,VWS V14.01,2013-10-11 17:42:00,
2013-10-11 13:47:00,65.3,48.7,29.23,ESE,120,0.0,0.0,55,0.00,,---,0.00,VWS V14.01,2013-10-11 17:47:00,
2013-10-11 13:52:00,65.3,48.7,29.23,ESE,120,0.0,0.0,55,0.00,,---,0.00,VWS V14.01,2013-10-11 17:52:00,
2013-10-11 13:57:00,65.1,48.1,29.23,NW,324,0.0,3.1,54,0.00,,---,0.00,VWS V14.01,2013-10-11 17:57:00,
2013-10-11 14:03:00,65.1,47.6,29.23,East,87,0.0,5.8,53,0.00,,---,0.00,VWS V14.01,2013-10-11 18:03:00,
2013-10-11 14:08:00,65.1,47.1,29.23,SE,140,4.9,5.4,52,0.00,,---,0.00,VWS V14.01,2013-10-11 18:08:00,
2013-10-11 14:13:00,65.1,48.1,29.23,ENE,69,0.0,0.0,54,0.00,,---,0.00,VWS V14.01,2013-10-11 18:13:00,
2013-10-11 14:18:00,64.9,47.9,29.23,ENE,70,0.0,3.6,54,0.00,,---,0.00,VWS V14.01,2013-10-11 18:18:00,
2013-10-11 14:23:00,64.9,47.9,29.23,SE,128,0.0,4.0,54,0.00,,---,0.00,VWS V14.01,2013-10-11 18:23:00,
2013-10-11 14:28:00,64.9,47.9,29.23,SE,136,0.0,2.7,54,0.00,,---,0.00,VWS V14.01,2013-10-11 18:28:00,
2013-10-11 14:33:00,65.1,48.6,29.23,SSW,207,0.0,0.0,55,0.00,,---,0.00,VWS V14.01,2013-10-11 18:33:00,
2013-10-11 14:38:00,65.1,48.6,29.23,ENE,71,0.0,0.0,55,0.00,,---,0.00,VWS V14.01,2013-10-11 18:38:00,
2013-10-11 14:43:00,65.3,48.7,29.23,South,183,0.0,0.0,55,0.00,,---,0.00,VWS V14.01,2013-10-11 18:43:00,
2013-10-11 14:48:00,65.5,48.4,29.23,ESE,109,0.0,3.6,54,0.00,,---,0.00,VWS V14.01,2013-10-11 18:48:00,
2013-10-11 14:53:00,65.5,47.4,29.23,SE,129,0.0,3.6,52,0.00,,---,0.00,VWS V14.01,2013-10-11 18:53:00,
2013-10-11 14:58:00,65.5,47.4,29.23,SSE,158,2.7,2.7,52,0.00,,---,0.00,VWS V14.01,2013-10-11 18:58:00,
2013-10-11 15:03:00,65.5,47.4,29.23,SE,137,0.0,2.7,52,0.00,,---,0.00,VWS V14.01,2013-10-11 19:03:00,
2013-10-11 15:08:00,65.5,46.4,29.23,SE,134,0.0,0.0,50,0.00,,---,0.00,VWS V14.01,2013-10-11 19:08:00,
2013-10-11 15:13:00,65.7,46.5,29.23,SE,134,5.4,5.4,50,0.00,,---,0.00,VWS V14.01,2013-10-11 19:13:00,
2013-10-11 15:18:00,65.8,47.2,29.23,South,175,0.0,4.0,51,0.00,,---,0.00,VWS V14.01,2013-10-11 19:18:00,
2013-10-11 15:23:00,66.0,47.4,29.23,NW,315,3.1,3.6,51,0.00,,---,0.00,VWS V14.01,2013-10-11 19:23:00,
2013-10-11 15:28:00,66.0,47.4,29.23,SSE,165,0.0,0.0,51,0.00,,---,0.00,VWS V14.01,2013-10-11 19:28:00,
2013-10-11 15:33:00,66.0,46.9,29.23,SE,134,0.0,0.0,50,0.00,,---,0.00,VWS V14.01,2013-10-11 19:33:00,
2013-10-11 15:38:00,66.0,46.3,29.23,East,85,2.7,4.5,49,0.00,,---,0.00,VWS V14.01,2013-10-11 19:38:00,
2013-10-11 15:43:00,66.0,46.3,29.23,SSW,197,2.7,2.7,49,0.00,,---,0.00,VWS V14.01,2013-10-11 19:43:00,
2013-10-11 15:48:00,66.0,46.9,29.23,ENE,66,0.0,0.0,50,0.00,,---,0.00,VWS V14.01,2013-10-11 19:48:00,
2013-10-11 15:53:00,65.8,46.7,29.23,East,96,0.0,2.7,50,0.00,,---,0.00,VWS V14.01,2013-10-11 19:53:00,
2013-10-11 15:58:00,65.8,46.2,29.23,SW,227,0.0,0.0,49,0.00,,---,0.00,VWS V14.01,2013-10-11 19:58:00,
2013-10-11 16:03:00,65.8,46.2,29.23,ENE,76,0.0,2.7,49,0.00,,---,0.00,VWS V14.01,2013-10-11 20:03:00,
2013-10-11 16:08:00,66.0,46.3,29.23,East,97,0.0,3.6,49,0.00,,---,0.00,VWS V14.01,2013-10-11 20:08:00,
2013-10-11 16:13:00,66.0,45.8,29.23,East,83,0.0,0.0,48,0.00,,---,0.00,VWS V14.01,2013-10-11 20:13:00,
2013-10-11 16:18:00,65.8,46.2,29.23,East,83,0.0,0.0,49,0.00,,---,0.00,VWS V14.01,2013-10-11 20:18:00,
2013-10-11 16:23:00,65.8,47.2,29.23,WSW,248,3.1,3.1,51,0.00,,---,0.00,VWS V14.01,2013-10-11 20:23:00,
2013-10-11 16:28:00,65.7,46.5,29.23,East,85,2.7,4.9,50,0.00,,---,0.00,VWS V14.01,2013-10-11 20:28:00,
2013-10-11 16:33:00,65.5,46.4,29.23,South,173,0.0,5.4,50,0.00,,---,0.00,VWS V14.01,2013-10-11 20:33:00,
2013-10-11 16:38:00,65.5,45.8,29.23,East,101,0.0,3.6,49,0.00,,---,0.00,VWS V14.01,2013-10-11 20:38:00,
2013-10-11 16:43:00,65.5,45.8,29.23,East,85,0.0,3.1,49,0.00,,---,0.00,VWS V14.01,2013-10-11 20:43:00,
2013-10-11 16:48:00,65.3,45.7,29.23,East,98,0.0,0.0,49,0.00,,---,0.00,VWS V14.01,2013-10-11 20:48:00,
2013-10-11 16:54:00,65.3,46.7,29.23,SSE,156,0.0,0.0,51,0.00,,---,0.00,VWS V14.01,2013-10-11 20:54:00,
2013-10-11 16:59:00,65.3,47.2,29.23,NNW,346,0.0,0.0,52,0.00,,---,0.00,VWS V14.01,2013-10-11 20:59:00,
2013-10-11 17:04:00,65.1,46.6,29.23,NW,324,0.0,0.0,51,0.00,,---,0.00,VWS V14.01,2013-10-11 21:04:00,
2013-10-11 17:10:00,65.1,46.6,29.23,South,172,4.9,5.8,51,0.00,,---,0.00,VWS V14.01,2013-10-11 21:10:00,
2013-10-11 17:15:00,65.3,46.2,29.23,SE,146,0.0,0.0,50,0.00,,---,0.00,VWS V14.01,2013-10-11 21:15:00,
2013-10-11 17:20:00,65.3,46.7,29.23,East,90,0.0,3.6,51,0.00,,---,0.00,VWS V14.01,2013-10-11 21:20:00,
2013-10-11 17:25:00,65.3,46.7,29.23,SE,141,0.0,3.1,51,0.00,,---,0.00,VWS V14.01,2013-10-11 21:25:00,
2013-10-11 17:30:00,65.1,46.6,29.23,SSE,156,0.0,0.0,51,0.00,,---,0.00,VWS V14.01,2013-10-11 21:30:00,
2013-10-11 17:35:00,65.1,46.6,29.23,SE,142,0.0,2.7,51,0.00,,---,0.00,VWS V14.01,2013-10-11 21:35:00,
2013-10-11 17:40:00,65.1,46.6,29.23,North,351,0.0,0.0,51,0.00,,---,0.00,VWS V14.01,2013-10-11 21:40:00,
2013-10-11 17:45:00,65.1,46.6,29.23,ENE,69,0.0,0.0,51,0.00,,---,0.00,VWS V14.01,2013-10-11 21:45:00,
2013-10-11 17:50:00,64.8,46.7,29.23,ENE,69,0.0,0.0,52,0.00,,---,0.00,VWS V14.01,2013-10-11 21:50:00,
2013-10-11 17:55:00,64.8,47.2,29.23,ENE,69,0.0,0.0,53,0.00,,---,0.00,VWS V14.01,2013-10-11 21:55:00,
2013-10-11 18:00:00,64.8,47.2,29.23,SSW,211,0.0,0.0,53,0.00,,---,0.00,VWS V14.01,2013-10-11 22:00:00,
2013-10-11 18:05:00,64.8,47.2,29.23,North,2,0.0,0.0,53,0.00,,---,0.00,VWS V14.01,2013-10-11 22:05:00,
2013-10-11 18:10:00,64.8,47.8,29.23,North,2,0.0,0.0,54,0.00,,---,0.00,VWS V14.01,2013-10-11 22:10:00,
2013-10-11 18:15:00,64.6,47.1,29.26,SE,126,0.0,0.0,53,0.00,,---,0.00,VWS V14.01,2013-10-11 22:15:00,
2013-10-11 18:20:00,64.8,47.2,29.26,South,187,0.0,0.0,53,0.00,,---,0.00,VWS V14.01,2013-10-11 22:20:00,
2013-10-11 18:25:00,64.6,47.1,29.26,SE,126,0.0,0.0,53,0.00,,---,0.00,VWS V14.01,2013-10-11 22:25:00,
2013-10-11 18:30:00,64.6,47.1,29.26,SE,126,0.0,0.0,53,0.00,,---,0.00,VWS V14.01,2013-10-11 22:30:00,
2013-10-11 18:35:00,64.4,46.9,29.26,SE,126,0.0,0.0,53,0.00,,---,0.00,VWS V14.01,2013-10-11 22:35:00,
2013-10-11 18:40:00,64.2,47.2,29.26,WNW,300,0.0,0.0,54,0.00,,---,0.00,VWS V14.01,2013-10-11 22:40:00,
2013-10-11 18:45:00,64.2,47.2,29.26,WNW,300,0.0,0.0,54,0.00,,---,0.00,VWS V14.01,2013-10-11 22:45:00,
2013-10-11 18:50:00,64.2,47.2,29.26,South,169,0.0,0.0,54,0.00,,---,0.00,VWS V14.01,2013-10-11 22:50:00,
2013-10-11 18:55:00,64.0,47.1,29.26,South,169,0.0,0.0,54,0.00,,---,0.00,VWS V14.01,2013-10-11 22:55:00,
2013-10-11 19:00:00,64.0,47.1,29.26,South,169,0.0,0.0,54,0.00,,---,0.00,VWS V14.01,2013-10-11 23:00:00,
2013-10-11 19:05:00,63.9,47.9,29.26,South,169,0.0,0.0,56,0.00,,---,0.00,VWS V14.01,2013-10-11 23:05:00,
2013-10-11 19:10:00,63.7,47.7,29.26,NW,322,0.0,0.0,56,0.00,,---,0.00,VWS V14.01,2013-10-11 23:10:00,
2013-10-11 19:15:00,63.7,48.2,29.26,NNW,336,0.0,0.0,57,0.00,,---,0.00,VWS V14.01,2013-10-11 23:15:00,
2013-10-11 19:20:00,63.7,48.2,29.26,WNW,293,0.0,0.0,57,0.00,,---,0.00,VWS V14.01,2013-10-11 23:20:00,
2013-10-11 19:26:00,63.9,48.3,29.26,ESE,122,0.0,0.0,57,0.00,,---,0.00,VWS V14.01,2013-10-11 23:26:00,
2013-10-11 19:31:00,63.9,48.3,29.26,NW,308,0.0,0.0,57,0.00,,---,0.00,VWS V14.01,2013-10-11 23:31:00,
2013-10-11 19:36:00,63.9,48.3,29.26,NW,308,0.0,0.0,57,0.00,,---,0.00,VWS V14.01,2013-10-11 23:36:00,
2013-10-11 19:41:00,63.9,48.3,29.26,NW,308,0.0,0.0,57,0.00,,---,0.00,VWS V14.01,2013-10-11 23:41:00,
2013-10-11 19:46:00,63.9,48.3,29.29,NW,308,0.0,0.0,57,0.00,,---,0.00,VWS V14.01,2013-10-11 23:46:00,
2013-10-11 19:51:00,63.7,48.2,29.29,NW,308,0.0,0.0,57,0.00,,---,0.00,VWS V14.01,2013-10-11 23:51:00,
2013-10-11 19:56:00,63.5,48.0,29.29,NW,309,0.0,0.0,57,0.00,,---,0.00,VWS V14.01,2013-10-11 23:56:00,
2013-10-11 20:01:00,63.5,48.5,29.29,SW,236,0.0,0.0,58,0.00,,---,0.00,VWS V14.01,2013-10-12 00:01:00,
2013-10-11 20:07:00,63.3,48.3,29.29,SW,236,0.0,0.0,58,0.00,,---,0.00,VWS V14.01,2013-10-12 00:07:00,
2013-10-11 20:12:00,63.3,48.8,29.29,East,81,0.0,0.0,59,0.00,,---,0.00,VWS V14.01,2013-10-12 00:12:00,
2013-10-11 20:17:00,63.3,48.8,29.26,ESE,117,0.0,0.0,59,0.00,,---,0.00,VWS V14.01,2013-10-12 00:17:00,
2013-10-11 20:22:00,63.3,48.3,29.26,SE,138,0.0,0.0,58,0.00,,---,0.00,VWS V14.01,2013-10-12 00:22:00,
2013-10-11 20:27:00,63.5,48.0,29.26,SE,145,0.0,0.0,57,0.00,,---,0.00,VWS V14.01,2013-10-12 00:27:00,
2013-10-11 20:32:00,63.5,47.5,29.29,ESE,118,2.7,3.1,56,0.00,,---,0.00,VWS V14.01,2013-10-12 00:32:00,
2013-10-11 20:38:00,63.3,45.4,29.29,ESE,109,0.0,4.0,52,0.00,,---,0.00,VWS V14.01,2013-10-12 00:38:00,
2013-10-11 20:43:00,63.5,45.1,29.29,SE,140,0.0,0.0,51,0.00,,---,0.00,VWS V14.01,2013-10-12 00:43:00,
2013-10-11 20:48:00,63.5,44.5,29.29,ESE,123,0.0,3.1,50,0.00,,---,0.00,VWS V14.01,2013-10-12 00:48:00,
2013-10-11 20:54:00,63.5,44.0,29.29,SSE,149,0.0,5.8,49,0.00,,---,0.00,VWS V14.01,2013-10-12 00:54:00,
2013-10-11 20:59:00,63.5,44.0,29.29,SSW,200,0.0,0.0,49,0.00,,---,0.00,VWS V14.01,2013-10-12 00:59:00,
2013-10-11 21:04:00,63.5,44.0,29.29,SSE,150,0.0,0.0,49,0.00,,---,0.00,VWS V14.01,2013-10-12 01:04:00,
2013-10-11 21:09:00,63.3,43.8,29.29,SSE,149,0.0,0.0,49,0.00,,---,0.00,VWS V14.01,2013-10-12 01:09:00,
2013-10-11 21:14:00,63.1,43.2,29.29,ESE,105,0.0,0.0,48,0.00,,---,0.00,VWS V14.01,2013-10-12 01:14:00,
2013-10-11 21:19:00,63.1,42.6,29.29,SE,129,0.0,0.0,47,0.00,,---,0.00,VWS V14.01,2013-10-12 01:19:00,
2013-10-11 21:24:00,63.1,42.0,29.29,SE,137,0.0,4.0,46,0.00,,---,0.00,VWS V14.01,2013-10-12 01:24:00,
2013-10-11 21:29:00,63.1,42.0,29.29,ENE,61,0.0,4.0,46,0.00,,---,0.00,VWS V14.01,2013-10-12 01:29:00,
2013-10-11 21:35:00,63.0,40.1,29.29,East,100,2.7,4.5,43,0.00,,---,0.00,VWS V14.01,2013-10-12 01:35:00,
2013-10-11 21:40:00,63.1,40.3,29.29,SE,136,0.0,0.0,43,0.00,,---,0.00,VWS V14.01,2013-10-12 01:40:00,
2013-10-11 21:45:00,63.1,40.3,29.29,SSE,154,0.0,0.0,43,0.00,,---,0.00,VWS V14.01,2013-10-12 01:45:00,
2013-10-11 21:50:00,63.0,40.7,29.29,SE,131,0.0,0.0,44,0.00,,---,0.00,VWS V14.01,2013-10-12 01:50:00,
2013-10-11 21:55:00,62.8,40.6,29.29,ESE,104,0.0,0.0,44,0.00,,---,0.00,VWS V14.01,2013-10-12 01:55:00,
2013-10-11 22:00:00,62.4,39.7,29.29,SE,142,4.9,5.4,43,0.00,,---,0.00,VWS V14.01,2013-10-12 02:00:00,
2013-10-11 22:05:00,62.6,39.2,29.29,NE,53,0.0,0.0,42,0.00,,---,0.00,VWS V14.01,2013-10-12 02:05:00,
2013-10-11 22:10:00,62.4,39.0,29.29,SE,130,0.0,4.9,42,0.00,,---,0.00,VWS V14.01,2013-10-12 02:10:00,
2013-10-11 22:15:00,62.4,38.4,29.29,ESE,104,0.0,4.0,41,0.00,,---,0.00,VWS V14.01,2013-10-12 02:15:00,
2013-10-11 22:20:00,62.4,37.8,29.29,SSE,147,0.0,3.1,40,0.00,,---,0.00,VWS V14.01,2013-10-12 02:20:00,
2013-10-11 22:25:00,62.2,37.6,29.29,East,79,0.0,0.0,40,0.00,,---,0.00,VWS V14.01,2013-10-12 02:25:00,
2013-10-11 22:30:00,62.2,36.3,29.29,SSE,156,0.0,5.4,38,0.00,,---,0.00,VWS V14.01,2013-10-12 02:30:00,
2013-10-11 22:35:00,62.2,36.3,29.29,SE,124,0.0,0.0,38,0.00,,---,0.00,VWS V14.01,2013-10-12 02:35:00,
2013-10-11 22:40:00,62.1,35.5,29.29,West,271,0.0,0.0,37,0.00,,---,0.00,VWS V14.01,2013-10-12 02:40:00,
2013-10-11 22:45:00,62.1,34.8,29.29,ESE,105,4.0,5.4,36,0.00,,---,0.00,VWS V14.01,2013-10-12 02:45:00,
2013-10-11 22:50:00,62.1,34.8,29.29,SE,139,0.0,4.5,36,0.00,,---,0.00,VWS V14.01,2013-10-12 02:50:00,
2013-10-11 22:55:00,61.9,34.0,29.29,SE,137,0.0,0.0,35,0.00,,---,0.00,VWS V14.01,2013-10-12 02:55:00,
2013-10-11 23:00:00,61.9,34.0,29.29,SSE,154,0.0,0.0,35,0.00,,---,0.00,VWS V14.01,2013-10-12 03:00:00,
2013-10-11 23:05:00,61.9,33.2,29.29,East,80,3.6,4.9,34,0.00,,---,0.00,VWS V14.01,2013-10-12 03:05:00,
2013-10-11 23:10:00,61.9,33.2,29.29,SE,139,0.0,4.5,34,0.00,,---,0.00,VWS V14.01,2013-10-12 03:10:00,
2013-10-11 23:15:00,61.9,33.2,29.29,SE,128,0.0,0.0,34,0.00,,---,0.00,VWS V14.01,2013-10-12 03:15:00,
2013-10-11 23:20:00,61.7,32.3,29.29,NNW,327,0.0,0.0,33,0.00,,---,0.00,VWS V14.01,2013-10-12 03:20:00,
2013-10-11 23:25:00,61.7,33.1,29.29,SSW,201,0.0,0.0,34,0.00,,---,0.00,VWS V14.01,2013-10-12 03:25:00,
2013-10-11 23:31:00,61.5,32.9,29.29,SSW,201,0.0,0.0,34,0.00,,---,0.00,VWS V14.01,2013-10-12 03:31:00,
2013-10-11 23:36:00,61.3,32.8,29.29,NW,325,0.0,2.7,34,0.00,,---,0.00,VWS V14.01,2013-10-12 03:36:00,
2013-10-11 23:41:00,61.2,32.6,29.29,North,0,0.0,0.0,34,0.00,,---,0.00,VWS V14.01,2013-10-12 03:41:00,
2013-10-11 23:46:00,61.0,33.2,29.29,North,0,0.0,0.0,35,0.00,,---,0.00,VWS V14.01,2013-10-12 03:46:00,
2013-10-11 23:51:00,60.8,33.0,29.29,North,0,0.0,0.0,35,0.00,,---,0.00,VWS V14.01,2013-10-12 03:51:00,
2013-10-11 23:56:00,60.6,32.1,29.29,NW,324,0.0,0.0,34,0.00,,---,0.00,VWS V14.01,2013-10-12 03:56:00,